カタログに戻る

FENGYUN 1C DEB

運用中PO
NORAD 36692·DEBRIS·🇨🇳 China

打ち上げ May 10, 1999 から Taiyuan Satellite Launch Center

Loading…

次のパス (今後24時間)

TLE

経年Source: Space-Track

元期: Sep 11, 2026, 00:45 UTC

1 36692U 99025DZN 26254.03134190  .00000534  00000-0  42051-3 0  9998
2 36692  99.9935 186.9280 0114892  12.8712 347.5336 13.93787485635989

AllMySatでFENGYUN 1C DEBをリアルタイム追跡

Download on the App Store